When you browse on this site, cookies collect data to enhance your experience and personalize the content and advertising you see.
Visit our Privacy Policy to learn more. By continuing to use the site, you agree to this use of cookies and data.

Hourly Weather Kiskunfelegyhaza

Today, 22 September, Tuesday

Time Temperature Precipitation Wind Pressure Humidity
00:00 +17°C° 0 mm 2 mps 755 mmHg 48%
01:00 +16°C° 0 mm 2 mps 755 mmHg 51%
02:00 +16°C° 0 mm 2 mps 755 mmHg 52%
03:00 +16°C° 0 mm 2 mps 754 mmHg 54%
04:00 +15°C° 0 mm 2 mps 754 mmHg 55%
05:00 +16°C° 0 mm 2 mps 754 mmHg 53%
06:00 +17°C° 0 mm 2 mps 754 mmHg 51%
07:00 +19°C° 0 mm 3 mps 755 mmHg 47%
08:00 +21°C° 0 mm 3 mps 755 mmHg 42%
09:00 +25°C° 0 mm 4 mps 754 mmHg 37%
10:00 +27°C° 0 mm 5 mps 754 mmHg 31%
11:00 +28°C° 0 mm 5 mps 754 mmHg 29%
12:00 +29°C° 0 mm 5 mps 753 mmHg 27%
13:00 +30°C° 0 mm 5 mps 753 mmHg 25%
14:00 +30°C° 0 mm 5 mps 752 mmHg 25%
15:00 +30°C° 0 mm 5 mps 752 mmHg 25%
16:00 +30°C° 0 mm 5 mps 751 mmHg 26%
17:00 +28°C° 0 mm 5 mps 751 mmHg 30%
18:00 +26°C° 0 mm 4 mps 751 mmHg 35%
19:00 +23°C° 0 mm 4 mps 751 mmHg 39%
20:00 +22°C° 0 mm 4 mps 751 mmHg 41%
21:00 +22°C° 0 mm 4 mps 751 mmHg 42%
22:00 +21°C° 0 mm 4 mps 751 mmHg 43%
23:00 +21°C° 0 mm 4 mps 751 mmHg 44%

Tomorrow, 23 September, Wednesday

Time Temperature Precipitation Wind Pressure Humidity
00:00 +20°C° 0 mm 4 mps 751 mmHg 45%
01:00 +20°C° 0 mm 4 mps 750 mmHg 46%
02:00 +19°C° 0 mm 3 mps 750 mmHg 46%
03:00 +19°C° 0 mm 3 mps 750 mmHg 46%
04:00 +19°C° 0 mm 3 mps 750 mmHg 46%
05:00 +19°C° 0.1 mm 3 mps 750 mmHg 44%
06:00 +20°C° 0.1 mm 4 mps 750 mmHg 42%
07:00 +20°C° 0.1 mm 4 mps 750 mmHg 40%
08:00 +22°C° 0 mm 4 mps 750 mmHg 38%
09:00 +25°C° 0 mm 4 mps 750 mmHg 37%
10:00 +27°C° 0 mm 3 mps 750 mmHg 35%
11:00 +28°C° 0 mm 3 mps 749 mmHg 35%
12:00 +29°C° 0 mm 4 mps 749 mmHg 34%
13:00 +30°C° 0 mm 4 mps 749 mmHg 34%
14:00 +30°C° 0 mm 3 mps 748 mmHg 35%
15:00 +29°C° 0 mm 3 mps 748 mmHg 36%
16:00 +29°C° 0 mm 3 mps 747 mmHg 37%
17:00 +27°C° 0.4 mm 3 mps 747 mmHg 46%
18:00 +24°C° 0.4 mm 3 mps 748 mmHg 55%
19:00 +21°C° 0.4 mm 2 mps 748 mmHg 64%
20:00 +21°C° 1.1 mm 2 mps 748 mmHg 67%
21:00 +20°C° 1.1 mm 2 mps 748 mmHg 71%
22:00 +19°C° 1.1 mm 2 mps 748 mmHg 74%
23:00 +19°C° 0.2 mm 2 mps 748 mmHg 76%

Day after tomorrow, 24 September, Thursday

Time Temperature Precipitation Wind Pressure Humidity
00:00 +19°C° 0.2 mm 2 mps 748 mmHg 79%
01:00 +18°C° 0.2 mm 2 mps 748 mmHg 81%
02:00 +18°C° 0 mm 2 mps 749 mmHg 82%
03:00 +17°C° 0 mm 3 mps 749 mmHg 83%
04:00 +17°C° 0 mm 3 mps 749 mmHg 85%
05:00 +17°C° 0 mm 3 mps 749 mmHg 83%
06:00 +18°C° 0 mm 3 mps 749 mmHg 81%
07:00 +18°C° 0 mm 3 mps 749 mmHg 79%
08:00 +20°C° 0 mm 3 mps 749 mmHg 71%
09:00 +22°C° 0 mm 4 mps 750 mmHg 63%
10:00 +25°C° 0 mm 4 mps 750 mmHg 55%
11:00 +26°C° 0 mm 4 mps 749 mmHg 51%
12:00 +27°C° 0 mm 4 mps 749 mmHg 47%
13:00 +28°C° 0 mm 4 mps 749 mmHg 44%
14:00 +28°C° 0 mm 4 mps 749 mmHg 44%
15:00 +28°C° 0 mm 3 mps 748 mmHg 44%
16:00 +28°C° 0 mm 3 mps 748 mmHg 44%
17:00 +26°C° 0 mm 2 mps 748 mmHg 47%
18:00 +25°C° 0 mm 2 mps 748 mmHg 51%
19:00 +24°C° 0 mm 1 mps 748 mmHg 55%
20:00 +23°C° 0 mm 2 mps 748 mmHg 56%
21:00 +23°C° 0 mm 2 mps 748 mmHg 58%
22:00 +21°C° 0 mm 2 mps 748 mmHg 60%
23:00 +21°C° 0 mm 2 mps 748 mmHg 62%

25 September, Friday

Time Temperature Precipitation Wind Pressure Humidity
00:00 +20°C° 0 mm 2 mps 748 mmHg 64%
01:00 +20°C° 0 mm 2 mps 747 mmHg 66%
02:00 +20°C° 0 mm 2 mps 747 mmHg 67%
03:00 +19°C° 0 mm 2 mps 747 mmHg 68%
04:00 +19°C° 0 mm 2 mps 746 mmHg 69%
05:00 +20°C° 0 mm 3 mps 746 mmHg 66%
06:00 +20°C° 0 mm 3 mps 745 mmHg 63%
07:00 +21°C° 0 mm 4 mps 745 mmHg 61%
08:00 +22°C° 0 mm 4 mps 745 mmHg 55%
09:00 +25°C° 0 mm 4 mps 744 mmHg 49%
10:00 +26°C° 0 mm 5 mps 744 mmHg 43%
11:00 +26°C° 0 mm 5 mps 743 mmHg 42%
12:00 +26°C° 0 mm 5 mps 743 mmHg 41%
13:00 +26°C° 0 mm 5 mps 742 mmHg 40%
14:00 +26°C° 0.1 mm 4 mps 741 mmHg 44%
15:00 +25°C° 0.1 mm 4 mps 741 mmHg 48%
16:00 +25°C° 0.1 mm 4 mps 740 mmHg 52%
17:00 +23°C° 0.3 mm 4 mps 740 mmHg 57%
18:00 +22°C° 0.3 mm 4 mps 740 mmHg 61%
19:00 +22°C° 0.3 mm 4 mps 739 mmHg 65%
20:00 +21°C° 0.4 mm 5 mps 739 mmHg 71%
21:00 +20°C° 0.4 mm 6 mps 739 mmHg 76%
22:00 +20°C° 0.4 mm 7 mps 738 mmHg 82%
23:00 +18°C° 0.5 mm 7 mps 738 mmHg 83%

26 September, Saturday

Time Temperature Precipitation Wind Pressure Humidity
00:00 +18°C° 0.5 mm 7 mps 737 mmHg 84%
01:00 +19°C° 0.5 mm 6 mps 736 mmHg 85%
02:00 +19°C° 1 mm 6 mps 736 mmHg 85%
03:00 +19°C° 1 mm 6 mps 736 mmHg 86%
04:00 +19°C° 1 mm 5 mps 736 mmHg 86%
05:00 +17°C° 0.4 mm 5 mps 736 mmHg 84%
06:00 +16°C° 0.4 mm 5 mps 737 mmHg 82%
07:00 +15°C° 0.4 mm 6 mps 737 mmHg 80%
08:00 +15°C° 0 mm 6 mps 737 mmHg 77%
09:00 +15°C° 0 mm 6 mps 738 mmHg 73%
10:00 +15°C° 0 mm 6 mps 738 mmHg 70%
11:00 +15°C° 0 mm 6 mps 738 mmHg 65%
12:00 +16°C° 0 mm 6 mps 738 mmHg 61%
13:00 +17°C° 0 mm 6 mps 737 mmHg 56%
14:00 +16°C° 0.2 mm 7 mps 737 mmHg 60%
15:00 +15°C° 0.2 mm 7 mps 737 mmHg 64%
16:00 +14°C° 0.2 mm 7 mps 737 mmHg 67%
17:00 +12°C° 1.3 mm 7 mps 737 mmHg 71%
18:00 +11°C° 1.3 mm 7 mps 737 mmHg 75%
19:00 +10°C° 1.3 mm 8 mps 737 mmHg 78%
20:00 +10°C° 0.4 mm 8 mps 737 mmHg 76%
21:00 +10°C° 0.4 mm 8 mps 737 mmHg 74%
22:00 +9°C° 0.4 mm 8 mps 737 mmHg 72%
23:00 +10°C° 0 mm 8 mps 737 mmHg 72%

27 September, Sunday

Time Temperature Precipitation Wind Pressure Humidity
00:00 +10°C° 0 mm 8 mps 737 mmHg 71%
01:00 +10°C° 0 mm 8 mps 738 mmHg 71%
02:00 +10°C° 0.8 mm 8 mps 738 mmHg 74%
03:00 +8°C° 0.8 mm 9 mps 739 mmHg 77%
04:00 +8°C° 0.8 mm 9 mps 739 mmHg 80%
05:00 +8°C° 0.6 mm 9 mps 739 mmHg 80%
06:00 +8°C° 0.6 mm 9 mps 739 mmHg 80%
07:00 +8°C° 0.6 mm 9 mps 740 mmHg 80%
08:00 +9°C° 0.3 mm 8 mps 740 mmHg 76%
09:00 +10°C° 0.3 mm 8 mps 741 mmHg 72%
10:00 +10°C° 0.3 mm 8 mps 741 mmHg 68%
11:00 +11°C° 0 mm 7 mps 742 mmHg 62%
12:00 +13°C° 0 mm 6 mps 742 mmHg 57%
13:00 +14°C° 0 mm 6 mps 743 mmHg 51%
14:00 +15°C° 0 mm 5 mps 743 mmHg 49%
15:00 +15°C° 0 mm 5 mps 743 mmHg 47%
16:00 +17°C° 0 mm 4 mps 744 mmHg 45%
17:00 +14°C° 0 mm 4 mps 744 mmHg 52%
18:00 +13°C° 0 mm 3 mps 744 mmHg 59%
19:00 +11°C° 0 mm 3 mps 745 mmHg 66%
20:00 +11°C° 0 mm 3 mps 745 mmHg 68%
21:00 +12°C° 0 mm 2 mps 745 mmHg 71%
22:00 +11°C° 0 mm 1 mps 746 mmHg 73%
23:00 +10°C° 0 mm 2 mps 746 mmHg 73%
Show more